DW6513 Weather Reports


time (UTC)temp
C
wind
direction
speed
KPH
gust
KPH
rain 1hr
cm
rain 24hr
cm
rain mn
cm
humidity
%
barometer
mb
20260904090802 25 150 0.0 0.0 0.00 0.00 0.00 70 1013.8
20260904090302 25 122 0.0 0.0 0.00 0.00 0.00 69 1013.7
20260904085301 25 100 0.0 0.0 0.00 0.00 0.00 69 1013.7
20260904084801 25 107 0.0 3.2 0.00 0.00 0.00 69 1013.8
20260904084301 25 122 1.6 3.2 0.00 0.00 0.00 69 1013.8
20260904083801 25 245 1.6 4.8 0.00 0.00 0.00 69 1013.8
20260904083301 25 122 1.6 4.8 0.00 0.00 0.00 68 1013.8
20260904082802 25 132 0.0 4.8 0.00 0.00 0.00 68 1013.9
20260904082305 25 100 0.0 0.0 0.00 0.00 0.00 68 1014.0
20260904081302 25 168 0.0 4.8 0.00 0.00 0.00 68 1014.0
20260904080801 25 130 0.0 3.2 0.00 0.00 0.00 67 1013.8
20260904080301 25 78 1.6 0.0 0.00 0.00 0.00 67 1013.7
20260904075802 25 123 1.6 3.2 0.00 0.00 0.00 67 1013.7
20260904075301 25 100 1.6 4.8 0.00 0.00 0.00 67 1013.7
20260904074801 25 121 1.6 4.8 0.00 0.00 0.00 66 1013.8
20260904073802 26 184 1.6 3.2 0.00 0.00 0.00 65 1013.9
20260904073302 26 145 1.6 3.2 0.00 0.00 0.00 65 1013.9
20260904072802 26 131 0.0 3.2 0.00 0.00 0.00 65 1013.7
20260904072301 26 122 0.0 3.2 0.00 0.00 0.00 65 1013.6
20260904071801 26 122 0.0 4.8 0.00 0.00 0.00 65 1013.6
20260904071301 26 100 0.0 4.8 0.00 0.00 0.00 65 1013.6
20260904070801 26 100 0.0 0.0 0.00 0.00 0.00 65 1013.7
20260904070302 26 325 1.6 0.0 0.00 0.00 0.00 64 1013.8
20260904065801 26 142 1.6 3.2 0.00 0.00 0.00 64 1013.8
20260904065301 26 100 1.6 3.2 0.00 0.00 0.00 64 1013.8
20260904064801 26 14 1.6 8.0 0.00 0.00 0.00 64 1013.8
20260904064301 26 100 0.0 4.8 0.00 0.00 0.00 64 1013.8
20260904063801 26 128 1.6 4.8 0.00 0.00 0.00 64 1013.8
20260904063302 26 145 1.6 4.8 0.00 0.00 0.00 64 1013.8
20260904062801 26 114 0.0 3.2 0.00 0.00 0.00 64 1013.7
20260904061301 26 145 1.6 3.2 0.00 0.00 0.00 63 1013.7
20260904060802 26 78 1.6 8.0 0.00 0.00 0.00 63 1013.8
20260904060301 26 258 0.0 4.8 0.00 0.00 0.00 63 1013.8
20260904055801 26 130 0.0 4.8 0.00 0.00 0.00 63 1013.8
20260904055301 26 78 1.6 0.0 0.00 0.00 0.00 62 1013.8
20260904054801 26 317 1.6 3.2 0.00 0.00 0.00 62 1013.9
20260904054302 26 145 0.0 3.2 0.00 0.00 0.00 62 1014.0
20260904053802 27 179 1.6 0.0 0.00 0.00 0.00 61 1014.0
20260904053302 27 78 3.2 4.8 0.00 0.00 0.00 61 1014.0
20260904052301 27 168 3.2 4.8 0.00 0.00 0.00 60 1014.0
20260904051802 27 135 1.6 4.8 0.00 0.00 0.00 60 1014.0
20260904051302 27 100 1.6 0.0 0.00 0.00 0.00 60 1014.0
20260904050817 27 122 1.6 8.0 0.00 0.00 0.00 60 1013.8
20260904050302 27 100 1.6 8.0 0.00 0.00 0.00 60 1013.7
20260904045801 27 115 1.6 4.8 0.00 0.00 0.00 60 1013.7
20260904045306 27 100 3.2 3.2 0.00 0.00 0.00 60 1013.7
20260904044802 27 100 3.2 4.8 0.00 0.00 0.00 59 1013.8
20260904044301 27 122 1.6 4.8 0.00 0.00 0.00 59 1013.9
20260904043801 27 106 1.6 4.8 0.00 0.00 0.00 59 1013.9
20260904043302 27 122 1.6 4.8 0.00 0.00 0.00 58 1013.9
20260904042802 27 110 1.6 4.8 0.00 0.00 0.00 58 1013.8
20260904042305 28 122 0.0 3.2 0.00 0.00 0.00 58 1013.7
20260904041301 28 100 0.0 0.0 0.00 0.00 0.00 58 1013.7
20260904040801 28 100 0.0 3.2 0.00 0.00 0.00 58 1013.9
20260904040301 28 100 0.0 0.0 0.00 0.00 0.00 57 1014.0
20260904035801 28 87 0.0 4.8 0.00 0.00 0.00 57 1014.0
20260904035301 28 100 0.0 0.0 0.00 0.00 0.00 57 1014.0
20260904034802 28 160 0.0 3.2 0.00 0.00 0.00 57 1013.9
20260904034302 28 145 0.0 3.2 0.00 0.00 0.00 57 1013.8
20260904033802 28 100 0.0 4.8 0.00 0.00 0.00 57 1013.8
20260904033302 28 122 0.0 0.0 0.00 0.00 0.00 56 1013.8
20260904032301 28 145 0.0 3.2 0.00 0.00 0.00 57 1013.6
20260904031801 28 280 0.0 3.2 0.00 0.00 0.00 56 1013.6
20260904031301 28 145 0.0 3.2 0.00 0.00 0.00 56 1013.6
20260904030801 28 190 0.0 3.2 0.00 0.00 0.00 56 1013.7
20260904030302 28 235 0.0 3.2 0.00 0.00 0.00 56 1013.8
20260904025802 28 129 0.0 0.0 0.00 0.00 0.00 56 1013.8
20260904025305 28 190 0.0 0.0 0.00 0.00 0.00 56 1013.8
20260904024802 28 220 0.0 0.0 0.00 0.00 0.00 56 1013.5
20260904023801 29 66 0.0 4.8 0.00 0.00 0.00 55 1013.4
20260904023301 29 168 0.0 4.8 0.00 0.00 0.00 55 1013.4
20260904022801 29 84 0.0 4.8 0.00 0.00 0.00 55 1013.5
20260904022305 29 212 0.0 0.0 0.00 0.00 0.00 55 1013.5
20260904021802 29 162 1.6 3.2 0.00 0.00 0.00 55 1013.5
20260904021302 29 145 1.6 8.0 0.00 0.00 0.00 54 1013.5
20260904020802 29 325 0.0 8.0 0.00 0.00 0.00 54 1013.5
20260904015802 30 123 1.6 8.0 0.00 0.00 0.00 52 1013.5
20260904015301 30 145 0.0 8.0 0.00 0.00 0.00 51 1013.5
20260904014802 30 324 0.0 0.0 0.00 0.00 0.00 50 1013.2
20260904014302 30 212 1.6 3.2 0.00 0.00 0.00 50 1013.1
20260904013801 30 112 1.6 3.2 0.00 0.00 0.00 49 1013.1
20260904013302 30 100 0.0 3.2 0.00 0.00 0.00 49 1013.1
20260904012802 30 190 0.0 4.8 0.00 0.00 0.00 49 1013.0
20260904012305 30 190 0.0 3.2 0.00 0.00 0.00 49 1012.9
20260904011302 31 145 0.0 3.2 0.00 0.00 0.00 48 1012.9
20260904010801 31 136 0.0 3.2 0.00 0.00 0.00 48 1012.7
20260904010301 31 78 0.0 3.2 0.00 0.00 0.00 48 1012.6
20260904005802 31 180 0.0 0.0 0.00 0.00 0.00 47 1012.6
20260904005302 31 168 0.0 0.0 0.00 0.00 0.00 47 1012.6
20260904003801 31 156 1.6 3.2 0.00 0.00 0.00 46 1012.7
20260904003301 31 78 1.6 3.2 0.00 0.00 0.00 45 1012.7
20260904002801 32 116 1.6 9.7 0.00 0.00 0.00 44 1012.5
20260904001802 32 180 1.6 8.0 0.00 0.00 0.00 44 1012.4
20260904001302 32 100 0.0 3.2 0.00 0.00 0.00 43 1012.4
20260904000802 32 180 0.0 3.2 0.00 0.00 0.00 43 1012.4
20260904000303 32 145 1.6 4.8 0.00 0.00 0.00 41 1012.4
20260903235801 33 158 1.6 4.8 0.00 0.00 0.00 41 1012.4
20260903235305 33 145 1.6 0.0 0.00 0.00 0.00 40 1012.4
20260903234801 33 85 1.6 3.2 0.00 0.00 0.00 40 1012.5
20260903233802 33 307 1.6 0.0 0.00 0.00 0.00 39 1012.6
20260903232802 34 96 1.6 4.8 0.00 0.00 0.00 36 1012.7
20260903232301 34 100 1.6 4.8 0.00 0.00 0.00 36 1012.8
20260903231801 35 212 1.6 8.0 0.00 0.00 0.00 35 1012.8
20260903231302 35 145 1.6 0.0 0.00 0.00 0.00 33 1012.8
20260903230802 36 265 1.6 11.3 0.00 0.00 0.00 31 1012.7
20260903230301 37 348 3.2 4.8 0.00 0.00 0.00 31 1012.6
20260903225802 37 324 3.2 8.0 0.00 0.00 0.00 31 1012.6
20260903225301 37 145 4.8 11.3 0.00 0.00 0.00 31 1012.6
20260903224801 37 70 3.2 19.3 0.00 0.00 0.00 30 1012.5
20260903224302 38 280 1.6 4.8 0.00 0.00 0.00 29 1012.4
20260903223802 37 145 1.6 8.0 0.00 0.00 0.00 31 1012.4
20260903223302 38 145 1.6 8.0 0.00 0.00 0.00 31 1012.4
20260903222801 38 145 3.2 8.0 0.00 0.00 0.00 29 1012.5
20260903222305 38 212 1.6 8.0 0.00 0.00 0.00 30 1012.6
20260903221801 39 141 1.6 8.0 0.00 0.00 0.00 28 1012.6
20260903221302 38 212 3.2 8.0 0.00 0.00 0.00 28 1012.6
20260903220802 38 114 3.2 12.9 0.00 0.00 0.00 28 1012.5
20260903215802 39 130 3.2 0.0 0.00 0.00 0.00 28 1012.5
20260903213802 39 126 3.2 16.1 0.00 0.00 0.00 27 1012.9
20260903213301 38 78 1.6 16.1 0.00 0.00 0.00 27 1012.9
20260903212801 38 145 1.6 4.8 0.00 0.00 0.00 29 1013.0
20260903211301 39 168 1.6 0.0 0.00 0.00 0.00 29 1013.1
20260903205802 38 134 3.2 8.0 0.00 0.00 0.00 30 1012.9
20260903205301 38 100 3.2 3.2 0.00 0.00 0.00 31 1012.9
20260903204802 37 241 3.2 11.3 0.00 0.00 0.00 31 1013.0
20260903204301 39 145 3.2 11.3 0.00 0.00 0.00 29 1013.0
20260903203802 39 101 3.2 12.9 0.00 0.00 0.00 31 1013.0
20260903203302 38 145 3.2 12.9 0.00 0.00 0.00 31 1013.0
20260903202802 38 131 1.6 8.0 0.00 0.00 0.00 32 1013.1
20260903202301 38 302 1.6 8.0 0.00 0.00 0.00 31 1013.2
20260903201802 38 125 0.0 0.0 0.00 0.00 0.00 34 1013.2
20260903201301 37 78 4.8 0.0 0.00 0.00 0.00 34 1013.2
20260903200802 36 287 8.0 20.9 0.00 0.00 0.00 34 1013.4
20260903200301 36 122 4.8 20.9 0.00 0.00 0.00 33 1013.5
20260903195802 37 108 4.8 9.7 0.00 0.00 0.00 33 1013.5
20260903195306 37 190 8.0 8.0 0.00 0.00 0.00 34 1013.5
20260903194801 37 128 8.0 11.3 0.00 0.00 0.00 34 1014.1
20260903193801 38 303 1.6 12.9 0.00 0.00 0.00 34 1014.5
20260903193302 37 145 1.6 8.0 0.00 0.00 0.00 35 1014.5
20260903192802 36 149 1.6 3.2 0.00 0.00 0.00 37 1014.2
20260903192301 37 212 3.2 3.2 0.00 0.00 0.00 36 1014.1
20260903191802 36 75 3.2 8.0 0.00 0.00 0.00 36 1014.1
20260903191302 36 168 3.2 8.0 0.00 0.00 0.00 37 1014.1
20260903190802 36 167 4.8 9.7 0.00 0.00 0.00 38 1014.3
20260903190301 35 122 8.0 9.7 0.00 0.00 0.00 37 1014.4
20260903185802 35 195 8.0 9.7 0.00 0.00 0.00 36 1014.4
20260903185301 35 145 6.4 22.5 0.00 0.00 0.00 36 1014.4
20260903184801 35 36 4.8 22.5 0.00 0.00 0.00 39 1014.4
20260903184302 35 325 8.0 9.7 0.00 0.00 0.00 40 1014.4
20260903183802 35 104 8.0 22.5 0.00 0.00 0.00 40 1014.4
20260903182803 34 208 8.0 14.5 0.00 0.00 0.00 43 1014.7
20260903182301 32 122 8.0 14.5 0.00 0.00 0.00 42 1014.8
20260903181802 33 125 8.0 8.0 0.00 0.00 0.00 43 1014.8
20260903181302 33 235 6.4 9.7 0.00 0.00 0.00 44 1014.8
20260903180302 32 32 6.4 0.0 0.00 0.00 0.00 46 1014.9
20260903175802 32 325 8.0 22.5 0.00 0.00 0.00 46 1014.9
20260903175305 32 10 8.0 22.5 0.00 0.00 0.00 46 1014.9
20260903174801 32 175 9.7 22.5 0.00 0.00 0.00 46 1015.2
20260903173802 32 149 8.0 16.1 0.00 0.00 0.00 47 1015.3
20260903172801 32 322 9.7 20.9 0.00 0.00 0.00 46 1015.4
20260903171802 32 49 9.7 14.5 0.00 0.00 0.00 47 1015.4
20260903171302 31 302 8.0 11.3 0.00 0.00 0.00 47 1015.4
20260903170802 32 108 8.0 12.9 0.00 0.00 0.00 47 1015.1
20260903170302 31 100 9.7 12.9 0.00 0.00 0.00 48 1014.9
20260903165305 31 100 9.7 12.9 0.00 0.00 0.00 49 1014.9
20260903164802 31 69 11.3 22.5 0.00 0.00 0.00 49 1015.4
20260903164301 31 78 8.0 16.1 0.00 0.00 0.00 49 1015.7
20260903163802 31 117 8.0 16.1 0.00 0.00 0.00 50 1015.7
20260903163302 31 168 8.0 22.5 0.00 0.00 0.00 50 1015.7
20260903162801 31 139 9.7 14.5 0.00 0.00 0.00 51 1015.6
20260903162306 31 145 9.7 16.1 0.00 0.00 0.00 51 1015.5
20260903161802 31 45 8.0 19.3 0.00 0.00 0.00 51 1015.5
20260903161302 30 302 8.0 16.1 0.00 0.00 0.00 51 1015.5
20260903160802 30 73 9.7 20.9 0.00 0.00 0.00 52 1015.6
20260903160301 30 122 9.7 32.2 0.00 0.00 0.00 51 1015.7
20260903155802 30 114 11.3 19.3 0.00 0.00 0.00 53 1015.7
20260903154802 30 100 9.7 20.9 0.00 0.00 0.00 53 1015.7
20260903154302 30 100 8.0 20.9 0.00 0.00 0.00 54 1015.7
20260903153802 30 100 8.0 19.3 0.00 0.00 0.00 57 1015.7
20260903153302 30 100 8.0 11.3 0.00 0.00 0.00 57 1015.7
20260903152802 29 100 4.8 12.9 0.00 0.00 0.00 58 1015.7
20260903152301 29 145 4.8 20.9 0.00 0.00 0.00 59 1015.7
20260903151802 29 55 4.8 20.9 0.00 0.00 0.00 59 1015.7
20260903151302 28 302 8.0 16.1 0.00 0.00 0.00 59 1015.7
20260903150801 28 46 8.0 16.1 0.00 0.00 0.00 60 1015.7
20260903150301 28 100 8.0 12.9 0.00 0.00 0.00 60 1015.7
20260903145802 28 125 4.8 19.3 0.00 0.00 0.00 60 1015.7
20260903144802 28 220 4.8 9.7 0.00 0.00 0.00 60 1015.7
20260903144302 27 145 4.8 9.7 0.00 0.00 0.00 61 1015.7
20260903143802 27 172 3.2 9.7 0.00 0.00 0.00 61 1015.7
20260903143302 27 145 3.2 8.0 0.00 0.00 0.00 62 1015.7
20260903142305 27 145 1.6 8.0 0.00 0.00 0.00 63 1015.6
20260903141802 27 32 1.6 4.8 0.00 0.00 0.00 65 1015.6
20260903141302 27 235 1.6 3.2 0.00 0.00 0.00 66 1015.6
20260903140302 26 122 1.6 4.8 0.00 0.00 0.00 67 1015.6
20260903135802 26 168 3.2 4.8 0.00 0.00 0.00 67 1015.6
20260903135302 26 235 3.2 4.8 0.00 0.00 0.00 67 1015.6
20260903134802 26 130 3.2 8.0 0.00 0.00 0.00 68 1015.6
20260903134302 26 100 3.2 4.8 0.00 0.00 0.00 69 1015.6
20260903133801 26 143 1.6 4.8 0.00 0.00 0.00 70 1015.6
20260903133302 25 145 1.6 4.8 0.00 0.00 0.00 70 1015.6
20260903132801 25 125 0.0 0.0 0.00 0.00 0.00 70 1015.7
20260903132306 25 212 1.6 3.2 0.00 0.00 0.00 71 1015.7
20260903131802 25 123 1.6 3.2 0.00 0.00 0.00 71 1015.7
20260903131302 25 145 1.6 4.8 0.00 0.00 0.00 71 1015.7
20260903130802 25 325 1.6 0.0 0.00 0.00 0.00 71 1015.6
20260903130302 24 100 0.0 3.2 0.00 0.00 0.00 72 1015.6
20260903125305 24 78 1.6 0.0 0.00 0.00 0.00 73 1015.6
20260903124802 24 90 1.6 4.8 0.00 0.00 0.00 72 1015.5
20260903124302 24 145 1.6 4.8 0.00 0.00 0.00 72 1015.4
20260903123302 23 168 0.0 0.0 0.00 0.00 0.00 73 1015.4
20260903122802 23 25 0.0 0.0 0.00 0.00 0.00 74 1015.6
20260903122305 23 145 0.0 0.0 0.00 0.00 0.00 74 1015.6
20260903121802 23 78 0.0 0.0 0.00 0.00 0.00 74 1015.6
20260903120803 23 159 0.0 0.0 0.00 0.00 0.00 74 1015.2
20260903120302 23 168 0.0 0.0 0.00 0.00 0.00 74 1015.2
20260903115802 23 123 0.0 0.0 0.00 0.00 0.00 74 1015.2
20260903115305 23 32 0.0 0.0 0.00 0.00 0.00 73 1015.2
20260903113803 23 119 0.0 3.2 0.00 0.00 0.00 72 1015.2
20260903112802 23 201 0.0 3.2 0.00 0.00 0.00 72 1015.2
20260903112305 23 100 0.0 0.0 0.00 0.00 0.00 72 1015.2
20260903111802 23 100 1.6 0.0 0.00 0.00 0.00 72 1015.2
20260903111302 23 100 1.6 0.0 0.00 0.00 0.00 72 1015.5
20260903110802 23 140 0.0 3.2 0.00 0.00 0.00 71 1015.4
20260903110302 23 100 0.0 0.0 0.00 0.00 0.00 71 1015.4
20260903105802 23 125 0.0 0.0 0.00 0.00 0.00 71 1015.4
20260903105305 23 122 0.0 0.0 0.00 0.00 0.00 71 1015.4